Hourly Data Report for December 04, 2021

TORONTO CITY
ONTARIO
Current Station Operator: ECCC - MSC

43°40'00.000" N
79°24'00.000" W
112.50 m
6158355
71508
XTO

Download Data

Hourly Data (December 2021)
Hourly Data Report for December 4, 2021
TIME
LST
Temp Definition
°C
Dew Point Definition
°C
Rel Hum Definition
%
Precip. Amount Definition
mm

Wind Dir Definition
10's deg

Wind Spd Definition
km/h
Visibility Definition
km
Stn Press Definition
kPa
Hmdx Definition


Wind Chill Definition


Weather Definition


00:00 0.8 -5.3 63 0.0       100.43     LegendNANA
01:00 0.8 -5.3 64 0.0       100.42     LegendNANA
02:00 0.9 -5.1 64 0.0       100.42     LegendNANA
03:00 1.2 -4.5 66 0.0       100.40     LegendNANA
04:00 1.5 -3.3 71 0.0       100.30     LegendNANA
05:00 2.3 -1.8 74 0.0       100.24     LegendNANA
06:00 2.6 -1.5 75 0.0       100.20     LegendNANA
07:00 2.8 -1.9 71 0.0       100.19     LegendNANA
08:00 2.2 -2.1 73 0.0       100.20     LegendNANA
09:00 2.8 -1.2 75 0.0       100.18     LegendNANA
10:00 3.9 -0.3 74 0.0       100.14     LegendNANA
11:00 4.9 -3.3 55 0.0       100.15     LegendNANA
12:00 5.1 -4.4 50 0.0       100.12     LegendNANA
13:00 4.4 -3.7 56 0.0       100.16     LegendNANA
14:00 4.4 -6.9 44 0.0       100.23     LegendNANA
15:00 4.1 -6.9 44 0.0       100.31     LegendNANA
16:00 3.7 -6.2 48 0.0       100.45     LegendNANA
17:00 2.9 -6.3 51 0.0       100.53     LegendNANA
18:00 3.1 -5.4 54 0.0       100.60     LegendNANA
19:00 2.5 -5.5 56 0.0       100.62     LegendNANA
20:00 2.7 -5.5 55 0.0       100.69     LegendNANA
21:00 2.4 -5.3 57 0.0       100.71     LegendNANA
22:00 2.3 -6.0 54 0.0       100.78     LegendNANA
23:00 2.1 -5.8 56 0.0       100.78     LegendNANA

Notes on Data Quality.

Legend

  • E = Estimated
  • M = Missing
  • NA = Not Available*
  • [empty] = Indicates an unobserved value
Date modified: